Change the Weather History Date:

Saturday, April 20, 2013

  Actual Average Record
Temperature  
Mean Temperature 33 °F 48 °F  
Max Temperature 38 °F 58 °F 73 °F (2006)
Min Temperature 28 °F 38 °F 26 °F (1997)
Degree Days  
Heating Degree Days 32    
Month to date heating degree days 497  
Since 1 July heating degree days 6185  
Cooling Degree Days 0    
Month to date cooling degree days 0  
Year to date cooling degree days 0  
Moisture  
Dew Point 21 °F    
Average Humidity 59    
Maximum Humidity 69    
Minimum Humidity 48    
Precipitation  
Precipitation T in 0.10 in 0.58 in (2011)
Month to date precipitation 6.41 1.90  
Year to date precipitation 12.26 7.28  
Snow  
Snow T in - - ()
Month to date snowfall T  
Since 1 July snowfall 43.4  
Snow Depth 0.00 in    
Sea Level Pressure  
Sea Level Pressure 30.13 in    
Wind  
Wind Speed 13 mph (WNW)    
Max Wind Speed 23 mph    
Max Gust Speed 31 mph    
Visibility 10 miles    
Events      
T = Trace of Precipitation, MM = Missing Value Source: NWS Daily Summary

Daily Weather History Graph

Daily Weather History Graph

Search for Another Location

Airport or City:

Trip Planner

Search our weather history database for the weather conditions in past years. The results will help you decide how hot, cold, wet, or windy it might be!

Date:

Astronomy

Apr. 20, 2013 Rise Set
Actual Time 6:45 AM EDT 8:25 PM EDT
Civil Twilight 6:14 AM EDT 8:56 PM EDT
Nautical Twilight 5:38 AM EDT 9:33 PM EDT
Astronomical Twilight 4:58 AM EDT 10:12 PM EDT
Moon 2:59 PM EDT (4/20) 3:44 AM EDT (4/20)
Length of Visible Light 14h 41m
Length of Day
13h 40m
Waxing Gibbous, 71% of the Moon is Illuminated
Apr 20
Waxing Gibbous
Apr 25
Full
May 2
Last Quarter
May 9
New
May 18
First Quarter

Hourly Weather History & Observations

Time (EDT) Temp. Windchill Dew Point Humidity Pressure Visibility Wind Dir Wind Speed Gust Speed Precip Events Conditions
12:53 AM 34.0 °F 23.8 °F 25.0 °F 70% 29.73 in 9.0 mi West 16.1 mph - 0.00 in   Overcast
1:53 AM 33.1 °F 20.9 °F 24.1 °F 70% 29.75 in 10.0 mi West 21.9 mph 26.5 mph N/A   Overcast
2:53 AM 32.0 °F 20.8 °F 19.9 °F 61% 29.78 in 10.0 mi West 17.3 mph 24.2 mph N/A   Overcast
3:53 AM 30.9 °F 18.1 °F 19.9 °F 64% 29.81 in 10.0 mi West 21.9 mph 31.1 mph N/A   Overcast
4:53 AM 28.9 °F 15.4 °F 19.9 °F 69% 29.86 in 10.0 mi West 21.9 mph 27.6 mph 0.00 in   Overcast
5:53 AM 28.0 °F 14.9 °F 19.9 °F 72% 29.91 in 10.0 mi West 19.6 mph 27.6 mph N/A   Mostly Cloudy
6:53 AM 28.0 °F 15.7 °F 18.0 °F 66% 29.96 in 10.0 mi WNW 17.3 mph 25.3 mph N/A   Scattered Clouds
7:53 AM 28.0 °F 16.1 °F 19.0 °F 69% 30.00 in 10.0 mi West 16.1 mph - N/A   Scattered Clouds
8:53 AM 30.0 °F 18.3 °F 19.0 °F 64% 30.04 in 10.0 mi WNW 17.3 mph 24.2 mph N/A   Mostly Cloudy
9:53 AM 33.1 °F 24.9 °F 19.0 °F 56% 30.08 in 10.0 mi WNW 10.4 mph - N/A   Overcast
10:53 AM 32.0 °F 20.8 °F 19.0 °F 59% 30.12 in 10.0 mi West 17.3 mph - N/A   Overcast
11:53 AM 34.0 °F 23.0 °F 19.9 °F 56% 30.15 in 10.0 mi WNW 18.4 mph 25.3 mph N/A   Overcast
12:53 PM 36.0 °F 26.7 °F 21.9 °F 57% 30.17 in 10.0 mi West 15.0 mph - N/A   Overcast
1:53 PM 36.0 °F 26.7 °F 21.0 °F 55% 30.20 in 10.0 mi West 15.0 mph 24.2 mph N/A   Overcast
2:53 PM 36.0 °F 26.3 °F 19.9 °F 52% 30.23 in 10.0 mi West 16.1 mph 21.9 mph N/A   Overcast
3:53 PM 37.0 °F 29.3 °F 21.9 °F 54% 30.26 in 10.0 mi WNW 11.5 mph - N/A   Overcast
4:53 PM 37.0 °F 28.1 °F 21.9 °F 54% 30.29 in 10.0 mi WNW 15.0 mph - N/A   Overcast
5:53 PM 37.9 °F 30.0 °F 21.0 °F 51% 30.32 in 10.0 mi WNW 12.7 mph - N/A   Overcast
6:53 PM 37.9 °F 30.9 °F 19.9 °F 48% 30.34 in 10.0 mi NW 10.4 mph - N/A   Mostly Cloudy
7:53 PM 36.0 °F 32.1 °F 19.9 °F 52% 30.36 in 10.0 mi NW 4.6 mph - N/A   Overcast
8:53 PM 34.0 °F 29.8 °F 19.9 °F 56% 30.40 in 10.0 mi NNW 4.6 mph - N/A   Clear
9:53 PM 34.0 °F 31.0 °F 23.0 °F 64% 30.43 in 10.0 mi NNW 3.5 mph - N/A   Clear
10:53 PM 30.9 °F 25.2 °F 21.0 °F 67% 30.45 in 10.0 mi North 5.8 mph - N/A   Clear
11:53 PM 30.0 °F 25.2 °F 19.9 °F 66% 30.48 in 10.0 mi North 4.6 mph - N/A   Clear